Tracking 29495 objects as of 7-Sep-2024
HD Live streaming from Space Station
objects crossing your sky now

STARLINK-2624

Track STARLINK-2624 now!
10-day predictions
STARLINK-2624 is classified as:


NORAD ID: 48358
Int'l Code: 2021-038F
Perigee: 553.2 km
Apogee: 555.5 km
Inclination: 53.1 °
Period: 95.6 minutes
Semi major axis: 6925 km
RCS: Unknown
Launch date: May 4, 2021
Source: United States (US)
Launch site: AIR FORCE EASTERN TEST RANGE (AFETR)
Your satellite tracking list
Your tracking list is empty




NASA's NSSDC Master Catalog

Two Line Element Set (TLE):
1 48358U 21038F   24251.42565317  .00020974  00000-0  14222-2 0  9994
2 48358  53.0542 302.8710 0001652  66.9360 293.1804 15.06413834184975
Source of the keplerian elements: AFSPC